TimePST,TemperatureF,Dew PointF,Humidity,Sea Level PressureIn,VisibilityMPH,Wind Direction,Wind SpeedMPH,Gust SpeedMPH,PrecipitationIn,Events,Conditions,WindDirDegrees,DateUTC
12:53 AM,19.9,16.0,85,30.23,-9999.0,South,5.8,-,N/A,,Unknown,190,2013-02-04 08:53:00
3:53 AM,18.0,14.0,84,30.23,-9999.0,SSW,8.1,-,N/A,,Unknown,210,2013-02-04 11:53:00
4:53 AM,17.1,12.9,84,30.25,-9999.0,South,6.9,-,N/A,,Unknown,190,2013-02-04 12:53:00
5:53 AM,19.0,16.0,88,30.25,-9999.0,South,3.5,-,N/A,,Unknown,190,2013-02-04 13:53:00
6:53 AM,18.0,15.1,88,30.28,-9999.0,SW,5.8,-,N/A,,Unknown,220,2013-02-04 14:53:00
7:53 AM,23.0,18.0,81,30.28,-9999.0,SSW,12.7,-,N/A,,Unknown,210,2013-02-04 15:53:00
8:53 AM,32.0,25.0,75,30.26,-9999.0,NW,4.6,-,N/A,,Unknown,320,2013-02-04 16:53:00
9:53 AM,33.1,24.1,70,30.27,-9999.0,Calm,Calm,-,N/A,,Unknown,0,2013-02-04 17:53:00
10:53 AM,37.0,25.0,62,30.25,-9999.0,Calm,Calm,-,N/A,,Unknown,0,2013-02-04 18:53:00
11:53 AM,39.9,24.1,53,30.22,-9999.0,Calm,Calm,-,N/A,,Unknown,0,2013-02-04 19:53:00
12:53 PM,42.1,23.0,47,30.19,-9999.0,Calm,Calm,-,N/A,,Unknown,0,2013-02-04 20:53:00
1:53 PM,45.0,24.1,44,30.16,-9999.0,NE,3.5,-,N/A,,Unknown,40,2013-02-04 21:53:00
2:53 PM,46.0,18.0,33,30.14,-9999.0,Calm,Calm,-,N/A,,Unknown,0,2013-02-04 22:53:00
3:53 PM,46.0,21.9,39,30.13,-9999.0,Calm,Calm,-,N/A,,Unknown,0,2013-02-04 23:53:00
4:53 PM,39.0,24.1,55,30.15,-9999.0,Calm,Calm,-,N/A,,Unknown,0,2013-02-05 00:53:00
5:53 PM,30.9,23.0,72,30.18,-9999.0,SSW,6.9,-,N/A,,Unknown,200,2013-02-05 01:53:00
6:53 PM,30.0,21.0,69,30.19,-9999.0,South,8.1,-,N/A,,Unknown,190,2013-02-05 02:53:00
7:53 PM,32.0,19.0,59,30.17,-9999.0,SE,5.8,-,N/A,,Unknown,130,2013-02-05 03:53:00
8:53 PM,21.9,17.1,82,30.19,-9999.0,SSW,5.8,-,N/A,,Unknown,210,2013-02-05 04:53:00
9:53 PM,25.0,18.0,75,30.16,-9999.0,South,6.9,-,N/A,,Unknown,180,2013-02-05 05:53:00
10:53 PM,23.0,17.1,78,30.13,-9999.0,SSW,6.9,-,N/A,,Unknown,200,2013-02-05 06:53:00
11:53 PM,23.0,18.0,81,30.12,-9999.0,SSW,4.6,-,N/A,,Unknown,210,2013-02-05 07:53:00